When you browse on this site, cookies collect data to enhance your experience and personalize the content and advertising you see.
Visit our Privacy Policy to learn more. By continuing to use the site, you agree to this use of cookies and data.
  • In United Kingdom
  • List of Countries
  • For 7 days
  • Water Temperature
  • Weather Map
  • Weather Widgets
  • user-avatar
    Login

    Hourly Weather Hakkari

    Today, 15 November, Friday

    Time Temperature Precipitation Wind Pressure Humidity
    00:00 +6°C° 0 mm 1 mps 616 mmHg 45%
    01:00 +5°C° 0 mm 1 mps 616 mmHg 46%
    02:00 +4°C° 0 mm 2 mps 616 mmHg 47%
    03:00 +4°C° 0 mm 2 mps 616 mmHg 48%
    04:00 +3°C° 0 mm 2 mps 616 mmHg 47%
    05:00 +3°C° 0 mm 2 mps 615 mmHg 46%
    06:00 +3°C° 0 mm 2 mps 615 mmHg 45%
    07:00 +5°C° 0 mm 2 mps 616 mmHg 38%
    08:00 +8°C° 0 mm 1 mps 617 mmHg 32%
    09:00 +9°C° 0 mm 2 mps 619 mmHg 27%
    10:00 +11°C° 0 mm 1 mps 619 mmHg 23%
    11:00 +12°C° 0 mm 1 mps 619 mmHg 18%
    12:00 +13°C° 0 mm 1 mps 619 mmHg 14%
    13:00 +14°C° 0 mm 1 mps 619 mmHg 14%
    14:00 +14°C° 0 mm 1 mps 619 mmHg 14%
    15:00 +14°C° 0 mm 1 mps 618 mmHg 14%
    16:00 +12°C° 0 mm 1 mps 617 mmHg 17%
    17:00 +10°C° 0 mm 1 mps 616 mmHg 20%
    18:00 +8°C° 0 mm 1 mps 615 mmHg 23%
    19:00 +7°C° 0 mm 1 mps 615 mmHg 23%
    20:00 +6°C° 0 mm 2 mps 615 mmHg 23%
    21:00 +5°C° 0 mm 2 mps 615 mmHg 23%
    22:00 +5°C° 0 mm 2 mps 615 mmHg 23%
    23:00 +5°C° 0 mm 2 mps 615 mmHg 23%

    Tomorrow, 16 November, Saturday

    Time Temperature Precipitation Wind Pressure Humidity
    00:00 +4°C° 0 mm 2 mps 615 mmHg 23%
    01:00 +4°C° 0 mm 2 mps 615 mmHg 23%
    02:00 +4°C° 0 mm 2 mps 615 mmHg 23%
    03:00 +4°C° 0 mm 2 mps 615 mmHg 23%
    04:00 +3°C° 0 mm 2 mps 615 mmHg 25%
    05:00 +3°C° 0 mm 2 mps 615 mmHg 26%
    06:00 +3°C° 0 mm 2 mps 615 mmHg 27%
    07:00 +5°C° 0 mm 2 mps 615 mmHg 26%
    08:00 +6°C° 0 mm 2 mps 616 mmHg 25%
    09:00 +8°C° 0 mm 2 mps 617 mmHg 23%
    10:00 +9°C° 0 mm 2 mps 617 mmHg 22%
    11:00 +10°C° 0 mm 2 mps 618 mmHg 20%
    12:00 +12°C° 0 mm 2 mps 618 mmHg 19%
    13:00 +12°C° 0 mm 2 mps 618 mmHg 21%
    14:00 +12°C° 0 mm 2 mps 617 mmHg 22%
    15:00 +12°C° 0 mm 2 mps 617 mmHg 24%
    16:00 +9°C° 0 mm 2 mps 617 mmHg 31%
    17:00 +7°C° 0 mm 2 mps 616 mmHg 38%
    18:00 +5°C° 0 mm 2 mps 616 mmHg 45%
    19:00 +4°C° 0 mm 2 mps 616 mmHg 47%
    20:00 +4°C° 0 mm 2 mps 616 mmHg 48%
    21:00 +3°C° 0 mm 2 mps 616 mmHg 50%
    22:00 +1°C° 0 mm 3 mps 616 mmHg 52%
    23:00 +1°C° 0 mm 3 mps 616 mmHg 54%

    Day after tomorrow, 17 November, Sunday

    Time Temperature Precipitation Wind Pressure Humidity
    00:00 0°C° 0 mm 3 mps 616 mmHg 56%
    01:00 0°C° 0 mm 3 mps 616 mmHg 55%
    02:00 -1°C° 0 mm 3 mps 616 mmHg 55%
    03:00 -1°C° 0 mm 3 mps 616 mmHg 54%
    04:00 -1°C° 0 mm 3 mps 616 mmHg 52%
    05:00 -1°C° 0 mm 2 mps 616 mmHg 50%
    06:00 -1°C° 0 mm 2 mps 616 mmHg 48%
    07:00 0°C° 0 mm 3 mps 617 mmHg 44%
    08:00 +1°C° 0 mm 3 mps 618 mmHg 39%
    09:00 +2°C° 0 mm 3 mps 618 mmHg 34%
    10:00 +4°C° 0 mm 3 mps 618 mmHg 30%
    11:00 +6°C° 0 mm 2 mps 618 mmHg 25%
    12:00 +7°C° 0 mm 2 mps 618 mmHg 21%
    13:00 +7°C° 0 mm 2 mps 618 mmHg 20%
    14:00 +7°C° 0 mm 2 mps 618 mmHg 20%
    15:00 +7°C° 0 mm 2 mps 618 mmHg 20%
    16:00 +5°C° 0 mm 2 mps 617 mmHg 24%
    17:00 +4°C° 0 mm 2 mps 617 mmHg 28%
    18:00 +2°C° 0 mm 2 mps 616 mmHg 32%
    19:00 +2°C° 0 mm 2 mps 616 mmHg 34%
    20:00 +1°C° 0 mm 2 mps 616 mmHg 36%
    21:00 +1°C° 0 mm 2 mps 617 mmHg 38%
    22:00 -1°C° 0 mm 2 mps 616 mmHg 39%
    23:00 -1°C° 0 mm 2 mps 616 mmHg 40%

    18 November, Monday

    Time Temperature Precipitation Wind Pressure Humidity
    00:00 -1°C° 0 mm 2 mps 616 mmHg 41%
    01:00 -2°C° 0 mm 2 mps 616 mmHg 42%
    02:00 -2°C° 0 mm 2 mps 616 mmHg 42%
    03:00 -2°C° 0 mm 2 mps 616 mmHg 43%
    04:00 -2°C° 0 mm 2 mps 616 mmHg 43%
    05:00 -2°C° 0 mm 2 mps 616 mmHg 43%
    06:00 -3°C° 0 mm 2 mps 616 mmHg 44%
    07:00 -1°C° 0 mm 2 mps 616 mmHg 39%
    08:00 +1°C° 0 mm 2 mps 617 mmHg 35%
    09:00 +3°C° 0 mm 2 mps 617 mmHg 31%
    10:00 +4°C° 0 mm 2 mps 617 mmHg 28%
    11:00 +5°C° 0 mm 2 mps 617 mmHg 26%
    12:00 +6°C° 0 mm 2 mps 617 mmHg 24%
    13:00 +6°C° 0 mm 2 mps 617 mmHg 24%
    14:00 +6°C° 0 mm 2 mps 617 mmHg 24%
    15:00 +6°C° 0 mm 2 mps 616 mmHg 24%
    16:00 +6°C° 0 mm 1 mps 616 mmHg 29%
    17:00 +4°C° 0 mm 1 mps 615 mmHg 34%
    18:00 +1°C° 0 mm 0 mps 614 mmHg 39%
    19:00 +1°C° 0 mm 0 mps 615 mmHg 41%
    20:00 +1°C° 0 mm 0 mps 615 mmHg 42%
    21:00 +1°C° 0 mm 1 mps 615 mmHg 43%
    22:00 +1°C° 0 mm 1 mps 615 mmHg 44%
    23:00 +1°C° 0 mm 1 mps 615 mmHg 45%

    19 November, Tuesday

    Time Temperature Precipitation Wind Pressure Humidity
    00:00 -1°C° 0 mm 2 mps 615 mmHg 45%
    01:00 -1°C° 0 mm 2 mps 615 mmHg 46%
    02:00 -2°C° 0 mm 2 mps 615 mmHg 47%
    03:00 -2°C° 0 mm 2 mps 615 mmHg 48%
    04:00 -2°C° 0 mm 2 mps 615 mmHg 49%
    05:00 -2°C° 0 mm 2 mps 615 mmHg 51%
    06:00 -3°C° 0 mm 2 mps 615 mmHg 52%
    07:00 -1°C° 0 mm 2 mps 615 mmHg 45%
    08:00 +1°C° 0 mm 2 mps 616 mmHg 38%
    09:00 +3°C° 0 mm 2 mps 617 mmHg 31%
    10:00 +5°C° 0 mm 1 mps 617 mmHg 27%
    11:00 +7°C° 0 mm 1 mps 617 mmHg 22%
    12:00 +8°C° 0 mm 1 mps 617 mmHg 18%
    13:00 +8°C° 0 mm 1 mps 617 mmHg 18%
    14:00 +9°C° 0 mm 1 mps 616 mmHg 19%
    15:00 +9°C° 0 mm 1 mps 616 mmHg 19%
    16:00 +7°C° 0 mm 1 mps 615 mmHg 24%
    17:00 +5°C° 0 mm 1 mps 615 mmHg 28%
    18:00 +3°C° 0 mm 1 mps 614 mmHg 33%
    19:00 +2°C° 0 mm 2 mps 614 mmHg 32%
    20:00 +2°C° 0 mm 2 mps 614 mmHg 31%
    21:00 +2°C° 0 mm 2 mps 614 mmHg 31%
    22:00 +2°C° 0 mm 2 mps 614 mmHg 30%
    23:00 +1°C° 0 mm 2 mps 614 mmHg 29%

    20 November, Wednesday

    Time Temperature Precipitation Wind Pressure Humidity
    00:00 +1°C° 0 mm 2 mps 614 mmHg 29%
    01:00 +2°C° 0 mm 1 mps 614 mmHg 28%
    02:00 +1°C° 0 mm 1 mps 613 mmHg 28%
    03:00 +1°C° 0 mm 1 mps 613 mmHg 27%
    04:00 +1°C° 0 mm 1 mps 613 mmHg 27%
    05:00 +1°C° 0 mm 1 mps 613 mmHg 27%
    06:00 0°C° 0 mm 1 mps 612 mmHg 26%
    07:00 +3°C° 0 mm 1 mps 614 mmHg 23%
    08:00 +4°C° 0 mm 0 mps 615 mmHg 19%
    09:00 +6°C° 0 mm 0 mps 616 mmHg 15%
    10:00 +8°C° 0 mm 0 mps 616 mmHg 14%
    11:00 +10°C° 0 mm 1 mps 616 mmHg 14%
    12:00 +11°C° 0 mm 1 mps 617 mmHg 13%
    13:00 +10°C° 0 mm 2 mps 616 mmHg 14%
    14:00 +10°C° 0 mm 2 mps 616 mmHg 15%
    15:00 +10°C° 0 mm 2 mps 615 mmHg 16%
    16:00 +8°C° 0 mm 2 mps 614 mmHg 21%
    17:00 +6°C° 0 mm 1 mps 613 mmHg 26%
    18:00 +4°C° 0 mm 1 mps 612 mmHg 31%
    19:00 +3°C° 0 mm 1 mps 612 mmHg 32%
    20:00 +3°C° 0 mm 1 mps 612 mmHg 33%
    21:00 +2°C° 0 mm 1 mps 612 mmHg 33%
    22:00 +1°C° 0 mm 0 mps 612 mmHg 34%
    23:00 +1°C° 0 mm 0 mps 611 mmHg 34%
    Show more